#timestamp,LO_Frequency,Hit 
1497607215.7,286047083.1,N
1497607235.5,286047085.9,N
1497607255.4,286047081.4,N
1497607275.2,286047083.9,N
1497607295.1,286047080.1,N
1497607296.0,286047080.1,N
1497607315.8,286047083.5,N
1497607335.6,286047083.7,N
1497607355.5,286047084.1,N
1497607375.3,286047083.1,N
1497607395.2,286047083.1,N
1497607415.9,286047082.8,N
1497607435.7,286047080.5,N
1497607455.6,286047079.7,N
1497607475.4,286047078.7,N
1497607495.3,286047075.3,N
1497607515.1,286047075.5,N
1497607516.0,286047075.5,N
1497607535.8,286047073.3,N
1497607555.7,286047074.1,N
1497607575.5,286047072.4,N
1497607595.3,286047072.6,N
1497607615.2,286047072.1,N
1497607635.0,286047073.8,N
1497607635.9,286047073.8,N
1497607655.8,286047076.6,N
1497607675.6,286047080.6,N
1497607695.4,286047080.4,N
1497607715.3,286047076.5,N
1497607735.1,286047077.6,N
1497607755.8,286047078.4,N
1497607775.7,286047078.4,N
1497607795.5,286047077.1,N
1497607815.4,286047076.6,N
1497607835.2,286047079.8,N
1497607855.0,286047079.9,N
1497607855.9,286047079.9,N
1497607875.8,286047082.4,N
1497607895.6,286047082.8,N
1497607915.4,286047078.5,N
1497607935.3,286047077.1,N
1497607955.1,286047075.4,N
1497607975.9,286047074.1,N
1497607995.7,286047071.8,N
1497608015.5,286047074.6,N
1497608035.4,286047073.7,N
1497608055.2,286047079.5,N
1497608075.0,286047082.5,N
1497608075.9,286047082.5,N
1497608095.8,286047078.5,N
1497608115.6,286047075.4,N
1497608135.5,286047075.6,N
1497608155.3,286047076.2,N
1497608175.1,286047071.7,N
1497608195.9,286047069.8,N
1497608215.7,286047068.4,N
1497608235.5,286047067.3,N
1497608255.4,286047067.0,N
1497608275.2,286047068.3,N
1497608295.1,286047069.8,N
1497608296.0,286047069.8,N
1497608315.8,286047067.2,N
1497608335.6,286047070.7,N
1497608355.5,286047073.9,N
1497608375.3,286047072.2,N
1497608395.2,286047074.2,N
1497608415.9,286047074.6,N
1497608435.7,286047073.7,N
1497608455.3,286047074.5,N
1497608475.1,286047071.7,N
1497608495.9,286047070.0,N
1497608515.7,286047067.6,N
1497608535.5,286047068.2,N
1497608555.4,286047061.0,N
1497608575.2,286047057.8,N
1497608595.1,286047057.9,N
1497608596.0,286047057.9,N
1497608615.8,286047065.1,N
1497608635.6,286047069.4,N
1497608655.5,286047071.9,N
1497608675.3,286047072.1,N
1497608695.1,286047074.1,N
1497608715.9,286047073.6,N
1497608735.7,286047078.3,N
1497608755.6,286047078.2,N
1497608775.4,286047082.4,N
1497608795.2,286047081.6,N
1497608815.1,286047082.0,N
1497608816.0,286047082.0,N
1497608835.8,286047083.1,N
1497608855.6,286047085.0,N
1497608875.5,286047088.6,N
1497608895.3,286047093.3,N
1497608915.2,286047097.7,N
1497608935.9,286047099.5,N
1497608955.7,286047100.2,N
1497608975.6,286047101.3,N
1497608995.4,286047108.1,N
1497609015.2,286047108.2,N
1497609035.1,286047108.4,N
1497609036.0,286047108.4,N
1497609055.8,286047109.6,N
1497609075.7,286047107.8,N
1497609095.5,286047105.5,N
1497609115.3,286047111.5,N
1497609135.2,286047113.6,N
1497609155.0,286047113.9,N
1497609155.9,286047113.9,N
1497609175.7,286047115.4,N
1497609195.6,286047120.1,N
1497609215.4,286047121.6,N
1497609235.3,286047126.0,N
1497609255.1,286047124.7,N
1497609256.0,286047124.7,N
1497609275.8,286047130.6,N
1497609295.7,286047129.6,N
1497609315.5,286047128.8,N
1497609335.3,286047123.1,N
1497609355.2,286047122.3,N
1497609375.0,286047122.2,N
1497609375.9,286047122.2,N
1497609395.8,286047123.6,N
1497609415.6,286047128.5,N
1497609435.4,286047134.8,N
1497609455.3,286047141.9,N
1497609475.1,286047145.2,N
1497609495.8,286047145.4,N
1497609515.7,286047150.0,N
1497609535.5,286047150.2,N
1497609555.4,286047157.5,N
1497609575.2,286047158.4,N
1497609595.0,286047160.9,N
1497609595.9,286047160.9,N
1497609615.8,286047162.2,N
1497609635.6,286047165.2,N
1497609655.4,286047165.7,N
1497609675.3,286047170.3,N
1497609695.1,286047172.0,N
1497609715.9,286047168.3,N
1497609735.7,286047171.8,N
1497609755.5,286047170.9,N
1497609775.4,286047171.5,N
1497609795.2,286047173.1,N
1497609815.0,286047173.7,N
1497609816.0,286047173.7,N
1497609835.8,286047173.1,N
1497609855.6,286047172.7,N
1497609875.5,286047173.5,N
1497609895.3,286047175.5,N
1497609915.1,286047173.7,N
1497609935.9,286047176.7,N
1497609955.7,286047176.5,N
1497609975.6,286047174.1,N
1497609995.4,286047177.2,N
1497610015.2,286047174.2,N
1497610035.1,286047176.1,N
1497610036.0,286047176.1,N
1497610055.8,286047179.6,N
1497610075.6,286047181.8,N
1497610095.5,286047177.3,N
1497610115.3,286047180.9,N
1497610135.2,286047181.1,N
1497610155.9,286047179.5,N
1497610175.7,286047179.8,N
1497610195.6,286047180.3,N
1497610215.4,286047179.4,N
1497610235.2,286047181.9,N
1497610255.1,286047183.3,N
1497610256.0,286047183.3,N
1497610275.8,286047182.3,N
1497610295.7,286047181.9,N
1497610315.5,286047179.2,N
1497610335.3,286047181.2,N
1497610355.2,286047184.6,N
1497610375.0,286047185.0,N
1497610375.9,286047185.0,N
1497610395.7,286047186.5,N
1497610415.6,286047183.8,N
1497610435.4,286047184.5,N
1497610455.3,286047186.3,N
1497610475.1,286047185.3,N
1497610476.0,286047185.3,N
1497610495.8,286047187.2,N
1497610515.7,286047183.7,N
1497610535.5,286047184.0,N
1497610555.3,286047183.7,N
1497610575.2,286047186.4,N
1497610595.0,286047186.6,N
1497610595.9,286047186.6,N
1497610615.8,286047186.0,N
1497610635.6,286047185.3,N
1497610655.4,286047186.1,N
1497610675.3,286047185.4,N
1497610695.1,286047186.5,N
1497610715.8,286047186.9,N
1497610735.7,286047187.4,N
1497610755.5,286047187.2,N
1497610775.4,286047186.9,N
1497610795.2,286047187.1,N
